JH4GLG-13 Weather Reports


Display with metric or nautical units.
time (UTC)temp
F
wind
direction
speed
MPH
gust
MPH
rain 1hr
in
rain 24hr
in
rain mn
in
humidity
%
barometer
mb
20260504081117 63 0 0.0 0.0 0.00 0.00 0.00 59 1012.9
20260504045621 71 0 0.0 0.0 0.00 0.00 0.00 42 1008.9
20260504045617 71 0 0.0 0.0 0.00 0.00 0.00 42 1008.8
20260504044116 72 0 0.0 0.0 0.00 0.00 0.00 42 1008.3
20260504042616 71 0 0.0 0.0 0.00 0.00 0.00 42 1008.4
20260504041115 71 0 0.0 0.0 0.00 0.00 0.00 45 1008.2
20260504035616 69 0 0.0 0.0 0.00 0.00 0.00 50 1008.2
20260504034115 67 0 0.0 0.0 0.00 0.00 0.00 63 1007.8
20260504032616 67 0 0.0 0.0 0.00 0.00 0.00 62 1007.7
20260504031115 67 0 0.0 0.0 0.00 0.00 0.00 61 1008.0
20260504025615 67 0 0.0 0.0 0.00 0.00 0.00 60 1007.8
20260504024114 68 0 0.0 0.0 0.00 0.00 0.00 60 1007.4
20260504022615 67 0 0.0 0.0 0.00 0.00 0.00 59 1007.3
20260504021114 67 0 0.0 0.0 0.00 0.00 0.00 60 1007.2
20260504015615 66 0 0.0 0.0 0.00 0.00 0.00 64 1007.2
20260504014114 66 0 0.0 0.0 0.00 0.00 0.00 66 1007.4
20260504012615 67 0 0.0 0.0 0.00 0.00 0.00 61 1007.2
20260504011114 66 0 0.0 0.0 0.00 0.00 0.00 60 1007.3
20260504005620 66 0 0.0 0.0 0.00 0.00 0.00 61 1007.2
20260504005615 66 0 0.0 0.0 0.00 0.00 0.00 61 1007.1
20260504004114 66 0 0.0 0.0 0.00 0.00 0.00 62 1007.1
20260504002614 66 0 0.0 0.0 0.00 0.00 0.00 67 1006.9
20260504001113 65 0 0.0 0.0 0.00 0.00 0.00 69 1007.1
20260503235614 65 0 0.0 0.0 0.00 0.00 0.00 73 1007.0
20260503234113 63 0 0.0 0.0 0.00 0.00 0.00 77 1007.0
20260503232614 63 0 0.0 0.0 0.00 0.00 0.00 78 1006.8
20260503231112 63 0 0.0 0.0 0.00 0.00 0.00 79 1006.5
20260503225614 63 0 0.0 0.0 0.00 0.00 0.00 79 1006.4
20260503224113 63 0 0.0 0.0 0.00 0.00 0.00 79 1006.1
20260503222614 64 0 0.0 0.0 0.00 0.00 0.00 77 1005.9
20260503221112 64 0 0.0 0.0 0.00 0.00 0.00 79 1005.8
20260503215613 64 0 0.0 0.0 0.00 0.00 0.00 84 1005.6
20260503214112 63 0 0.0 0.0 0.00 0.00 0.00 88 1005.5
20260503212614 61 0 0.0 0.0 0.00 0.00 0.00 92 1005.0
20260503211112 61 0 0.0 0.0 0.00 0.00 0.00 93 1004.9
20260503205613 60 0 0.0 0.0 0.00 0.00 0.00 96 1004.7
20260503204112 60 0 0.0 0.0 0.00 0.00 0.00 97 1004.3
20260503202612 60 0 0.0 0.0 0.00 0.00 0.00 96 1004.1
20260503201111 60 0 0.0 0.0 0.00 0.00 0.00 96 1004.2
20260503195613 60 0 0.0 0.0 0.00 0.00 0.00 96 1004.3
20260503194111 60 0 0.0 0.0 0.00 0.00 0.00 95 1003.9
20260503192612 60 0 0.0 0.0 0.00 0.00 0.00 94 1003.5
20260503191111 60 0 0.0 0.0 0.00 0.00 0.00 93 1003.4
20260503185612 60 0 0.0 0.0 0.00 0.00 0.00 93 1003.4
20260503184111 61 0 0.0 0.0 0.00 0.00 0.00 93 1003.3
20260503182612 61 0 0.0 0.0 0.00 0.00 0.00 92 1002.9
20260503181110 61 0 0.0 0.0 0.00 0.00 0.00 92 1002.8
20260503175611 61 0 0.0 0.0 0.00 0.00 0.00 95 1002.6
20260503174110 62 0 0.0 0.0 0.00 0.00 0.00 97 1002.6
20260503172611 62 0 0.0 0.0 0.00 0.00 0.00 98 1002.3
20260503171110 62 0 0.0 0.0 0.00 0.00 0.00 99 1002.2
20260503131108 64 0 0.0 0.0 0.00 0.00 0.00 99 1001.7